This is the latest recevied weather packets stored in our database for station/object K3RUP-1. If no packets are shown the sender has not sent any weather packets the latest 10 day(s).
| Time | Temp. | Humidity | Pressure | Rain* | Wind** | Luminosity | Snow |
|---|---|---|---|---|---|---|---|
| 1777995112 | 25.56° C | 52% | 1011.3 hPa | 0 mm | - | 753 W/m² | - |
| 1777994809 | 25.56° C | 52% | 1011.4 hPa | 0 mm | - | 762 W/m² | - |
| 1777994505 | 25° C | 52% | 1011.4 hPa | 0 mm | - | 758 W/m² | - |
| 1777994200 | 25.56° C | 51% | 1011.4 hPa | 0 mm | - | 766 W/m² | - |
| 1777993898 | 25.56° C | 49% | 1011.3 hPa | 0 mm | - | 356 W/m² | - |
| 1777993594 | 25.56° C | 51% | 1011.4 hPa | 0 mm | - | 281 W/m² | - |
| 1777993291 | 25° C | 49% | 1011.4 hPa | 0 mm | - | 225 W/m² | - |
| 1777992986 | 25° C | 51% | 1011.4 hPa | 0 mm | - | 132 W/m² | - |
| 1777992685 | 24.44° C | 50% | 1011.6 hPa | 0 mm | - | 198 W/m² | - |
| 1777992382 | 24.44° C | 49% | 1011.5 hPa | 0 mm | - | 72 W/m² | - |
| 1777992080 | 24.44° C | 52% | 1011.5 hPa | 0 mm | - | 225 W/m² | - |
| 1777991778 | 23.89° C | 52% | 1011.4 hPa | 0 mm | - | 550 W/m² | - |
| 1777991474 | 23.33° C | 51% | 1011.5 hPa | 0 mm | - | 65 W/m² | - |
| 1777991172 | 23.33° C | 51% | 1011.4 hPa | 0 mm | - | 85 W/m² | - |
| 1777990869 | 23.33° C | 52% | 1011.5 hPa | 0 mm | - | 68 W/m² | - |
| 1777990566 | 23.33° C | 52% | 1011.4 hPa | 0 mm | - | 237 W/m² | - |
| 1777989959 | 22.22° C | 53% | 1011.4 hPa | 0 mm | - | 295 W/m² | - |
| 1777989656 | 21.67° C | 53% | 1011.5 hPa | 0 mm | - | 153 W/m² | - |
| 1777989352 | 21.67° C | 55% | 1011.4 hPa | 0 mm | - | 94 W/m² | - |
| 1777989049 | 21.67° C | 56% | 1011.3 hPa | 0 mm | - | 156 W/m² | - |
| 1777988745 | 21.11° C | 55% | 1011.5 hPa | 0 mm | - | 50 W/m² | - |
| 1777988443 | 21.11° C | 56% | 1011.5 hPa | 0 mm | - | 60 W/m² | - |
| 1777988139 | 21.11° C | 56% | 1011.3 hPa | 0 mm | - | 63 W/m² | - |
| 1777987835 | 21.11° C | 57% | 1011.7 hPa | 0 mm | - | 49 W/m² | - |
| 1777987532 | 20.56° C | 57% | 1011.9 hPa | 0 mm | - | 51 W/m² | - |
* Rain latest hour (hover to see other rain measurements)
** Current wind speed in m/s (hover to see current wind gust speed)